User: anonymous
Location: Albany
(35.0000°S, 118.0000°E)
Time: 02:46:13
(UTC-04:00)
Language:

TRMM - Orbit

View from above orbital plane
View from above orbital plane
View from above satellite
View from above satellite

Ground track
Ground track

The orbit data is extracted from the following two-line orbital elements,

1 25063U 97074A   14244.77954318  .00020316  00000-0  26681-3 0  7303
2 25063 034.9557 353.2810 0000689 068.0078 066.3814 15.57542209956632
Epoch (UTC): 01 September 2014 18:42:32
Eccentricity: 0.0000689
inclination: 34.9557°
perigee height: 394 km
apogee height: 395 km
right ascension of ascending node: 353.2810°
argument of perigee: 68.0078°
revolutions per day: 15.57542209
mean anomaly at epoch: 66.3814°
orbit number at epoch: 95663

The dashed part of the orbit path shows where the satellite is in the earth's shadow,  

DLR